This is the latest recevied weather packets stored in our database for station/object SP3WRO-13. If no packets are shown the sender has not sent any weather packets the latest 10 day(s).
| Time | Temp. | Humidity | Pressure | Rain* | Wind** | Luminosity | Snow |
|---|---|---|---|---|---|---|---|
| 1788361273 | 20.56° C | 61% | 1014.9 hPa | 1.27 mm | - | 159 W/m² | - |
| 1788360373 | 20.56° C | 64% | 1015 hPa | 1.27 mm | - | 159 W/m² | - |
| 1788359473 | 20.56° C | 61% | 1015 hPa | 1.27 mm | - | 243 W/m² | - |
| 1788358573 | 20.56° C | 63% | 1015.1 hPa | 1.27 mm | - | 231 W/m² | - |
| 1788357672 | 20° C | 64% | 1015.1 hPa | 1.27 mm | - | 209 W/m² | - |
| 1788355872 | 20.56° C | 64% | 1015.2 hPa | 1.27 mm | - | 301 W/m² | - |
| 1788354972 | 20.56° C | 65% | 1015.4 hPa | 1.27 mm | - | 346 W/m² | - |
| 1788354072 | 20.56° C | 65% | 1015.4 hPa | 1.27 mm | - | 308 W/m² | - |
| 1788353172 | 20.56° C | 62% | 1015.5 hPa | 1.27 mm | - | 323 W/m² | - |
| 1788352272 | 20.56° C | 64% | 1015.5 hPa | 1.52 mm | - | 284 W/m² | - |
| 1788351372 | 21.11° C | 65% | 1015.6 hPa | 4.32 mm | - | 307 W/m² | - |
| 1788350472 | 20° C | 67% | 1015.7 hPa | 4.32 mm | - | 213 W/m² | - |
| 1788348672 | 19.44° C | 69% | 1015.9 hPa | 4.32 mm | - | 188 W/m² | - |
| 1788347772 | 20° C | 69% | 1016 hPa | 4.32 mm | - | 243 W/m² | - |
| 1788346910 | 20° C | 68% | 1016 hPa | 4.32 mm | - | 528 W/m² | - |
| 1788346872 | 20° C | 68% | 1016 hPa | 4.32 mm | - | 528 W/m² | - |
| 1788345972 | 18.89° C | 68% | 1016.2 hPa | 4.32 mm | - | 725 W/m² | - |
| 1788345072 | 20° C | 70% | 1016.3 hPa | 4.32 mm | - | 784 W/m² | - |
| 1788344172 | 19.44° C | 68% | 1016.3 hPa | 4.32 mm | - | 771 W/m² | - |
| 1788343272 | 18.89° C | 75% | 1016.3 hPa | 4.32 mm | - | 699 W/m² | - |
| 1788342406 | 18.33° C | 72% | 1016.4 hPa | 4.32 mm | - | 782 W/m² | - |
| 1788342372 | 18.33° C | 72% | 1016.4 hPa | 4.32 mm | - | 782 W/m² | - |
| 1788341504 | 18.33° C | 76% | 1016.4 hPa | 4.32 mm | - | 189 W/m² | - |
| 1788341471 | 18.33° C | 76% | 1016.4 hPa | 4.32 mm | - | 189 W/m² | - |
| 1788340571 | 18.33° C | 80% | 1016.4 hPa | 5.08 mm | - | 183 W/m² | - |
* Rain latest 24 hours (hover to see other rain measurements)
** Current wind speed in m/s (hover to see current wind gust speed)